Back to catalog

FENGYUN 1C DEB

AlivePO
NORAD 31302·DEBRIS·🇨🇳 China

Launched May 10, 1999 from Taiyuan Satellite Launch Center

Loading…

Next Passes (next 24 hours)

TLE

FreshSource: Space-Track

Epoch: Sep 11, 2026, 03:36 UTC

1 31302U 99025BPL 26254.15022352  .00001847  00000-0  74578-3 0  9997
2 31302  99.3977 322.1323 0025500 359.3612  30.0820 14.29109524  2082

Track FENGYUN 1C DEB in real time with AllMySat

Download on the App Store